MDT,Max TemperatureF,Mean TemperatureF,Min TemperatureF,Max Dew PointF,MeanDew PointF,Min DewpointF,Max Humidity, Mean Humidity, Min Humidity, Max Sea Level PressureIn, Mean Sea Level PressureIn, Min Sea Level PressureIn, Max VisibilityMiles, Mean VisibilityMiles, Min VisibilityMiles, Max Wind SpeedMPH, Mean Wind SpeedMPH, Max Gust SpeedMPH,PrecipitationIn, CloudCover, Events, WindDirDegrees
2011-10-1,85,73,60,47,40,35,39,31,23,30.09,30.00,29.92,10,10,10,13,5,21,0.00,1,,92
2011-10-2,88,77,66,54,43,37,53,36,18,30.14,29.97,29.87,10,10,10,21,4,26,T,3,,163
2011-10-3,84,73,61,53,48,40,63,43,22,30.20,29.97,29.87,10,10,9,24,5,28,0.00,6,,170
2011-10-4,84,75,65,55,50,41,73,51,28,30.14,29.89,29.79,10,10,10,17,7,22,T,5,Rain-Thunderstorm,182
2011-10-5,85,73,61,52,44,36,67,42,17,29.91,29.77,29.68,10,10,10,23,13,29,0.00,2,,197
2011-10-6,88,71,54,44,34,24,45,28,10,29.87,29.65,29.57,10,10,10,29,15,40,0.00,0,,200
2011-10-7,85,72,58,41,32,24,40,26,11,30.01,29.72,29.59,10,10,10,29,12,38,0.00,1,,241
2011-10-8,72,60,48,29,25,22,42,30,17,30.01,29.88,29.79,10,10,10,18,6,23,0.00,3,,345
2011-10-9,75,64,52,31,23,19,38,26,13,29.96,29.90,29.85,10,10,10,18,6,21,0.00,0,,355
2011-10-10,80,66,51,42,35,28,41,31,21,30.00,29.87,29.75,10,10,10,12,4,16,0.00,0,,32
2011-10-11,85,68,51,45,29,16,66,37,8,29.84,29.76,29.68,10,10,10,21,6,25,0.00,0,,243
2011-10-12,84,72,60,30,23,19,27,18,9,30.00,29.84,29.73,10,10,10,29,9,35,0.00,0,,13
2011-10-13,86,68,49,28,23,20,34,22,9,29.99,29.89,29.81,10,10,10,10,4,14,0.00,0,,339
2011-10-14,89,70,50,26,23,21,32,21,9,29.98,29.85,29.79,10,10,10,10,4,13,0.00,0,,18
2011-10-15,90,75,59,27,24,22,25,17,9,30.09,29.92,29.84,10,10,10,13,5,16,0.00,1,,16
2011-10-16,90,71,51,34,26,20,32,20,8,30.16,29.90,29.82,10,10,10,10,4,10,0.00,0,,123
2011-10-17,90,72,54,28,25,21,28,18,8,30.04,29.84,29.75,10,10,10,24,10,32,0.00,0,,293
2011-10-18,73,64,54,36,29,24,47,32,17,30.19,30.06,29.92,10,10,10,20,8,24,0.00,0,,106
2011-10-19,76,63,50,27,26,24,38,27,16,30.15,30.03,29.90,10,10,10,9,3,14,0.00,0,,147
2011-10-20,87,68,48,31,25,21,39,25,10,30.10,29.92,29.84,10,10,10,23,7,29,0.00,0,,257
2011-10-21,85,70,55,29,25,22,26,19,11,30.14,29.97,29.89,10,10,10,18,6,23,0.00,0,,281
2011-10-22,85,69,53,29,23,14,32,21,10,30.02,29.94,29.88,10,10,10,17,6,23,0.00,0,,345
2011-10-23,86,70,54,22,19,15,23,16,9,30.16,29.98,29.91,10,10,10,13,4,16,0.00,0,,21
2011-10-24,85,68,51,46,26,18,38,25,11,30.13,29.98,29.91,10,10,10,25,6,31,T,3,,342
2011-10-25,85,75,65,51,46,36,60,42,23,29.96,29.87,29.78,10,10,10,22,10,25,T,3,Rain,235
2011-10-26,85,72,59,46,39,34,48,33,17,30.01,29.73,29.57,10,10,8,33,11,40,0.01,3,Rain-Thunderstorm,216
2011-10-27,65,54,43,46,38,34,70,53,36,30.09,29.91,29.68,10,10,10,16,7,21,T,3,Rain-Thunderstorm,56
2011-10-28,66,52,38,36,35,33,79,54,29,30.27,30.16,30.10,10,10,10,14,5,17,0.00,0,,117
2011-10-29,71,57,43,35,33,32,65,46,26,30.16,30.06,29.94,10,10,10,12,3,15,0.00,3,,79
2011-10-30,78,60,42,34,26,20,62,37,12,30.10,30.04,29.98,10,10,10,17,4,21,0.00,0,,6
2011-10-31,80,63,46,29,25,23,39,26,13,30.20,30.01,29.91,10,10,10,12,2,15,0.00,0,,91